CW4358 Weather Reports


time (UTC)temp
C
wind
direction
speed
KPH
gust
KPH
rain 1hr
cm
rain 24hr
cm
rain mn
cm
humidity
%
barometer
mb
20260508044843 12 176 0.0 0.0 0.05 3.61 0.05 94 1012.3
20260508044516 12 176 0.0 0.0 0.00 0.00 0.05 94 1012.2
20260508044343 12 176 0.0 0.0 0.03 3.58 0.03 94 1012.3
20260508043845 12 176 0.0 0.0 0.03 3.58 0.03 94 1012.3
20260508043348 12 176 0.0 0.0 0.05 3.58 0.03 94 1012.3
20260508043057 12 176 0.0 0.0 0.00 0.00 0.03 94 1012.2
20260508043004 12 176 0.0 0.0 0.00 0.00 0.03 94 1012.2
20260508042848 12 176 0.0 0.0 0.05 3.58 0.03 94 1012.3
20260508042330 12 176 0.0 0.0 0.05 3.58 0.03 94 1012.1
20260508041858 12 176 0.0 0.0 0.05 3.58 0.03 94 1012.2
20260508041535 12 176 0.0 0.0 0.00 0.00 0.03 94 1012.2
20260508041406 12 176 0.0 0.0 0.05 3.58 0.03 94 1012.3
20260508040845 12 176 0.0 0.0 0.03 3.56 0.00 94 1012.4
20260508040337 12 176 0.0 0.0 0.05 3.56 0.00 94 1012.2
20260508040050 12 176 0.0 0.0 0.00 0.00 3.56 94 1012.1
20260508035836 12 176 0.0 0.0 0.05 3.56 3.56 94 1012.2
20260508035337 12 176 0.0 0.0 0.05 3.56 3.56 94 1012.2
20260508034835 12 176 0.0 0.0 0.05 3.56 3.56 94 1011.9
20260508034537 12 176 0.0 0.0 0.00 0.00 3.56 94 1011.8
20260508034335 12 176 0.0 0.0 0.05 3.56 3.56 94 1011.9
20260508033837 12 176 0.0 1.6 0.05 3.56 3.56 94 1011.8
20260508033336 12 176 0.0 1.6 0.05 3.53 3.53 94 1011.6
20260508033014 12 176 0.0 0.0 0.00 0.00 3.53 94 1011.5
20260508032839 12 176 0.0 3.2 0.05 3.53 3.53 94 1011.7
20260508032342 12 186 1.6 3.2 0.05 3.53 3.53 94 1011.5
20260508031844 12 186 1.6 3.2 0.05 3.53 3.53 94 1011.4
20260508031504 12 148 0.0 0.0 0.00 0.00 3.53 94 1011.4
20260508031345 12 148 0.0 0.0 0.05 3.53 3.53 94 1011.6
20260508030845 12 148 0.0 0.0 0.05 3.53 3.53 94 1011.7
20260508030339 12 148 0.0 1.6 0.05 3.51 3.51 94 1011.5
20260508030026 12 148 0.0 0.0 0.00 0.00 3.51 94 1011.3
20260508025837 12 148 0.0 1.6 0.05 3.51 3.51 94 1011.3
20260508025338 12 148 0.0 0.0 0.05 3.51 3.51 94 1011.3
20260508024839 12 148 0.0 0.0 0.05 3.51 3.51 94 1011.2
20260508024535 12 148 0.0 0.0 0.00 0.00 3.51 94 1011.1
20260508024336 12 148 0.0 0.0 0.05 3.51 3.51 94 1011.2
20260508023837 12 148 0.0 1.6 0.08 3.51 3.51 94 1011.2
20260508023337 12 148 0.0 1.6 0.05 3.48 3.48 94 1011.2
20260508023008 12 148 0.0 0.0 0.00 0.00 3.48 94 1011.2
20260508022839 12 148 0.0 1.6 0.05 3.48 3.48 94 1011.2
20260508022406 12 148 0.0 1.6 0.05 3.48 3.48 94 1011.2
20260508021845 12 148 0.0 0.0 0.05 3.48 3.48 94 1011.2
20260508021538 12 148 0.0 0.0 0.00 0.00 3.48 94 1010.8
20260508021346 12 148 0.0 0.0 0.08 3.48 3.48 94 1010.8
20260508020845 12 148 0.0 0.0 0.08 3.48 3.48 94 1010.8
20260508020359 12 148 0.0 0.0 0.05 3.45 3.45 94 1011.0
20260508020045 12 148 0.0 0.0 0.00 0.00 3.45 94 1011.1
20260508015905 12 148 0.0 0.0 0.05 3.45 3.45 94 1011.2
20260508015409 12 148 0.0 0.0 0.05 3.45 3.45 94 1011.1
20260508014848 12 148 0.0 0.0 0.08 3.45 3.45 94 1010.8
20260508014549 12 148 0.0 0.0 0.00 0.00 3.45 94 1010.7
20260508014347 12 148 0.0 0.0 0.08 3.45 3.45 94 1010.8
20260508013848 12 148 0.0 3.2 0.05 3.43 3.43 94 1010.9
20260508013347 12 148 0.0 3.2 0.05 3.43 3.43 94 1010.8
20260508013035 12 153 0.0 0.0 0.00 0.00 3.43 94 1010.3
20260508012845 12 208 0.0 1.6 0.05 3.43 3.43 94 1010.3
20260508012347 12 207 0.0 1.6 0.08 3.43 3.43 94 1010.0
20260508011845 12 208 0.0 0.0 0.08 3.43 3.43 94 1010.2
20260508011529 12 208 0.0 0.0 0.00 0.00 3.43 94 1010.0
20260508011345 12 208 0.0 0.0 0.05 3.40 3.40 94 1010.2
20260508010844 12 208 0.0 0.0 0.05 3.40 3.40 94 1010.2
20260508010355 12 207 0.0 0.0 0.05 3.40 3.40 94 1010.3
20260508010051 12 207 0.0 0.0 0.00 0.00 3.40 94 1010.2
20260508005852 12 208 0.0 1.6 0.05 3.40 3.40 94 1010.3
20260508005354 12 208 0.0 1.6 0.05 3.40 3.40 94 1010.1
20260508004853 12 207 0.0 3.2 0.03 3.38 3.38 94 1010.2
20260508004522 12 208 0.0 0.0 0.00 0.00 3.38 93 1010.0
20260508004332 12 207 0.0 3.2 0.05 3.38 3.38 93 1010.5
20260508003833 12 172 0.0 1.6 0.05 3.38 3.38 93 1009.9
20260508003402 12 172 0.0 0.0 0.05 3.38 3.38 93 1010.0
20260508003038 12 172 0.0 0.0 0.00 0.00 3.38 93 1010.4
20260508002842 12 172 0.0 3.2 0.05 3.38 3.38 93 1010.6
20260508002344 12 172 1.6 3.2 0.03 3.35 3.35 93 1010.4
20260508001845 12 286 1.6 3.2 0.03 3.35 3.35 93 1010.1
20260508001536 12 251 1.6 0.0 0.00 0.00 3.35 93 1009.7
20260508001345 13 250 0.0 3.2 0.03 3.35 3.35 93 1009.7
20260508000844 13 250 0.0 3.2 0.03 3.35 3.35 93 1009.5
20260508000335 13 251 0.0 1.6 0.03 3.35 3.35 93 1009.1
20260508000055 12 250 0.0 0.0 0.00 0.00 3.35 93 1008.8
20260507235900 13 250 0.0 1.6 0.05 3.35 3.35 93 1008.8
20260507235340 13 251 0.0 1.6 0.05 3.35 3.35 93 1008.8
20260507234841 13 250 0.0 1.6 0.05 3.35 3.35 93 1008.9
20260507234523 12 250 0.0 0.0 0.00 0.00 3.33 93 1008.7
20260507234340 13 251 0.0 1.6 0.03 3.33 3.33 93 1008.9
20260507233842 13 250 1.6 1.6 0.03 3.33 3.33 93 1009.0
20260507233343 13 250 0.0 1.6 0.03 3.33 3.33 93 1009.2
20260507233014 12 251 0.0 0.0 0.00 0.00 3.33 93 1008.9
20260507232842 13 251 0.0 0.0 0.03 3.33 3.33 93 1009.2
20260507232343 13 251 0.0 3.2 0.05 3.33 3.33 93 1009.1
20260507231846 13 250 0.0 3.2 0.05 3.33 3.33 93 1009.1
20260507231511 12 294 0.0 0.0 0.00 0.00 3.33 93 1008.9
20260507231330 13 294 1.6 3.2 0.05 3.33 3.33 93 1009.1
20260507230830 13 294 0.0 3.2 0.05 3.33 3.33 93 1009.0
20260507230406 13 294 0.0 3.2 0.05 3.33 3.33 93 1008.9
20260507230013 12 294 0.0 0.0 0.00 0.00 3.30 93 1008.6
20260507225846 13 294 1.6 1.6 0.03 3.30 3.30 93 1008.9
20260507225413 13 294 0.0 4.8 0.03 3.30 3.30 93 1009.0
20260507224853 13 224 1.6 9.7 0.05 3.30 3.30 93 1008.6
20260507224547 12 305 1.6 0.0 0.00 0.00 3.30 93 1008.5
20260507224355 13 296 3.2 9.7 0.05 3.30 3.30 93 1008.7
20260507223856 13 300 0.0 4.8 0.05 3.30 3.30 93 1008.7
20260507223355 13 300 1.6 4.8 0.05 3.30 3.30 93 1008.7
20260507223035 12 299 1.6 0.0 0.00 0.00 3.30 93 1008.5
20260507222856 13 300 0.0 4.8 0.05 3.30 3.30 93 1008.6
20260507222356 13 34 1.6 4.8 0.03 3.28 3.28 93 1008.5
20260507221835 13 5 3.2 4.8 0.03 3.28 3.28 93 1008.6
20260507221507 12 351 1.6 0.0 0.00 0.00 3.28 93 1008.3
20260507221337 13 351 1.6 4.8 0.05 3.28 3.28 93 1008.5
20260507220837 13 337 0.0 3.2 0.05 3.28 3.28 93 1008.6
20260507220345 13 350 1.6 3.2 0.05 3.28 3.28 93 1008.5
20260507220031 12 294 1.6 0.0 0.00 0.00 3.28 93 1008.5
20260507215830 13 294 0.0 3.2 0.05 3.28 3.28 93 1008.7
20260507215332 13 294 0.0 3.2 0.05 3.28 3.28 93 1008.7
20260507214834 13 297 0.0 3.2 0.05 3.25 3.25 93 1008.6
20260507214519 12 286 1.6 0.0 0.00 0.00 3.25 93 1008.3
20260507214335 13 297 1.6 3.2 0.05 3.25 3.25 93 1008.5
20260507213903 13 308 1.6 4.8 0.05 3.25 3.25 93 1008.4
20260507213343 13 308 1.6 9.7 0.05 3.25 3.25 93 1008.4
20260507213049 13 355 3.2 0.0 0.00 0.00 3.25 93 1008.2
20260507212844 13 338 3.2 9.7 0.05 3.25 3.25 93 1008.4
20260507212344 13 275 3.2 6.4 0.08 3.25 3.25 93 1008.4
20260507211843 13 355 3.2 6.4 0.08 3.25 3.25 93 1008.3
20260507211543 13 324 1.6 0.0 0.00 0.00 3.23 93 1008.0
20260507211343 13 323 1.6 6.4 0.05 3.23 3.23 93 1008.2
20260507210842 13 277 1.6 9.7 0.05 3.23 3.23 93 1008.2
20260507210331 13 269 3.2 9.7 0.08 3.23 3.23 93 1008.2
20260507210009 13 277 3.2 0.0 0.00 0.00 3.23 94 1007.8
20260507205831 13 338 1.6 8.0 0.08 3.23 3.23 93 1008.0
20260507205359 13 300 3.2 9.7 0.08 3.23 3.23 93 1008.0
20260507204840 13 273 4.8 9.7 0.05 3.20 3.20 94 1007.8
20260507204537 13 295 1.6 0.0 0.00 0.00 3.20 94 1007.6
20260507204340 14 300 1.6 4.8 0.08 3.20 3.20 94 1007.7
20260507203839 14 13 1.6 8.0 0.08 3.20 3.20 94 1007.7
20260507203408 14 284 3.2 8.0 0.08 3.20 3.20 93 1007.8
20260507203018 13 315 1.6 0.0 0.00 0.00 3.20 93 1007.3
20260507202847 14 337 0.0 3.2 0.10 3.20 3.20 93 1007.6
20260507202331 14 360 1.6 4.8 0.08 3.17 3.17 94 1007.6
20260507201832 14 295 1.6 14.5 0.08 3.17 3.17 93 1007.7
20260507201535 14 290 3.2 0.0 0.00 0.00 3.17 93 1007.5
20260507201334 14 278 4.8 14.5 0.08 3.17 3.17 93 1007.6
20260507200830 14 306 1.6 4.8 0.08 3.17 3.17 93 1007.6
20260507200346 14 294 1.6 6.4 0.08 3.15 3.15 93 1007.6
20260507200003 14 259 3.2 0.0 0.00 0.00 3.15 93 1007.4
20260507195845 15 278 3.2 6.4 0.08 3.15 3.15 93 1007.6
20260507195346 15 287 1.6 6.4 0.08 3.28 3.15 93 1007.3
20260507194846 15 265 4.8 6.4 0.10 3.28 3.15 93 1007.5
20260507194602 15 286 1.6 0.0 0.00 0.00 3.12 93 1007.1
20260507194415 15 286 1.6 4.8 0.08 3.25 3.12 93 1007.4
20260507193855 15 240 1.6 4.8 0.10 3.25 3.12 93 1007.5
20260507193402 15 346 1.6 6.4 0.10 3.25 3.12 93 1007.4
20260507193038 15 309 3.2 0.0 0.00 0.00 3.10 93 1007.0
20260507192840 15 286 3.2 9.7 0.10 3.23 3.10 93 1007.4
20260507192339 15 284 3.2 6.4 0.10 3.23 3.10 93 1007.4
20260507191834 15 5 3.2 6.4 0.13 3.23 3.10 93 1007.5
20260507191521 15 307 1.6 0.0 0.00 0.00 3.10 93 1007.5
20260507191332 16 272 3.2 6.4 0.15 3.23 3.10 93 1007.7
20260507190902 16 273 3.2 8.0 0.15 3.23 3.10 93 1007.3
20260507190332 16 300 3.2 8.0 0.15 3.20 3.07 93 1007.1
20260507190028 16 281 3.2 0.0 0.00 0.00 3.07 93 1006.7
20260507185833 16 294 3.2 4.8 0.18 3.20 3.07 93 1006.8
20260507185333 16 269 1.6 4.8 0.18 3.20 3.07 93 1006.5
20260507184902 16 316 3.2 4.8 0.18 3.17 3.05 93 1006.8
20260507184502 16 345 1.6 0.0 0.00 0.00 3.05 93 1006.8
20260507184341 16 345 1.6 4.8 0.20 3.17 3.05 93 1007.0
20260507183841 17 295 1.6 6.4 0.18 3.15 3.02 92 1007.1
20260507183340 17 291 3.2 6.4 0.20 3.15 3.02 92 1007.4
20260507183048 17 311 1.6 0.0 0.00 0.00 3.00 92 1007.0
20260507182841 17 281 1.6 4.8 0.20 3.12 3.00 92 1007.2
20260507182336 18 288 1.6 3.2 0.23 3.12 3.00 93 1006.6
20260507181836 18 5 1.6 4.8 0.23 3.10 2.97 92 1006.5
20260507181536 18 71 3.2 0.0 0.00 0.00 2.97 92 1006.6
20260507181336 18 294 3.2 6.4 0.23 3.07 2.95 92 1007.0
20260507180835 20 176 1.6 9.7 0.23 3.07 2.95 92 1006.7
20260507180348 21 296 6.4 9.7 0.23 3.05 2.92 94 1006.7
20260507180054 21 5 1.6 0.0 0.00 0.00 2.90 94 1006.4
20260507175849 21 61 1.6 4.8 0.25 3.05 2.92 94 1006.7
20260507175350 21 290 1.6 3.2 0.25 3.02 2.90 94 1006.8
20260507174830 21 244 0.0 4.8 0.25 3.00 2.87 94 1006.8
20260507174550 21 228 0.0 0.0 0.00 0.00 2.84 94 1006.5
20260507174330 21 355 1.6 4.8 0.25 2.97 2.84 94 1006.7
20260507173917 21 12 0.0 6.4 0.28 2.97 2.84 94 1006.7
20260507173354 21 13 1.6 6.4 0.28 2.95 2.82 94 1006.5
20260507173044 20 248 1.6 0.0 0.00 0.00 2.79 94 1006.3
20260507172853 21 322 1.6 4.8 0.28 2.92 2.79 94 1006.6
20260507172355 21 273 0.0 4.8 0.28 2.90 2.77 94 1006.5
20260507171837 21 25 1.6 4.8 0.28 2.87 2.74 94 1006.4
20260507171544 21 337 1.6 0.0 0.00 0.00 2.74 94 1006.0
20260507171339 21 196 1.6 3.2 0.30 2.87 2.74 94 1006.2
20260507170905 21 342 0.0 3.2 0.30 2.84 2.72 95 1006.4
20260507170338 21 126 0.0 3.2 0.30 2.82 2.69 95 1006.5
20260507170051 21 126 0.0 0.0 0.00 0.00 2.67 95 1006.2
20260507165842 21 82 1.6 3.2 0.30 2.79 2.67 95 1006.5
20260507165346 21 82 0.0 3.2 0.30 2.77 2.64 95 1006.7
20260507164844 21 96 0.0 3.2 0.33 2.74 2.62 95 1006.9
20260507164543 20 28 0.0 0.0 0.00 0.00 2.59 95 1006.7
20260507164345 21 28 1.6 3.2 0.33 2.72 2.59 95 1006.9
20260507163843 20 171 0.0 3.2 0.33 2.69 2.57 95 1007.3
20260507163345 20 171 1.6 4.8 0.33 2.67 2.54 94 1007.4
20260507163038 20 348 1.6 0.0 0.00 0.00 2.54 94 1007.1
20260507162848 20 349 1.6 4.8 0.33 2.64 2.51 94 1007.4
20260507162348 20 333 0.0 3.2 0.36 2.62 2.49 95 1007.7
20260507161850 20 271 0.0 3.2 0.36 2.59 2.46 95 1007.8
20260507161505 20 317 1.6 0.0 0.00 0.00 2.44 95 1007.6
20260507161331 20 302 0.0 4.8 0.36 2.57 2.44 95 1007.8
20260507160829 20 302 1.6 8.0 0.36 2.54 2.41 95 1007.9
20260507160410 20 265 1.6 8.0 0.38 2.51 2.39 94 1008.0
20260507160012 20 342 1.6 0.0 0.00 0.00 2.36 95 1007.7
20260507155849 20 131 1.6 6.4 0.38 2.49 2.36 94 1007.9
20260507155330 20 254 0.0 4.8 0.41 2.46 2.34 94 1007.8
20260507154859 20 78 1.6 4.8 0.41 2.44 2.31 95 1007.7
20260507154542 20 37 0.0 0.0 0.00 0.00 2.29 95 1007.3
20260507154343 20 36 0.0 4.8 0.38 2.39 2.26 95 1007.5
20260507153844 20 325 1.6 3.2 0.41 2.36 2.24 95 1007.4
20260507153406 20 54 0.0 1.6 0.41 2.34 2.21 95 1007.6
20260507153017 20 54 0.0 0.0 0.00 0.00 2.18 95 1007.4
20260507152850 20 54 0.0 3.2 0.41 2.31 2.18 95 1007.8
20260507152354 20 67 0.0 3.2 0.43 2.29 2.16 95 1007.6
20260507151854 20 5 0.0 4.8 0.41 2.24 2.11 94 1007.6
20260507151608 19 360 1.6 0.0 0.00 0.00 2.11 94 1007.3
20260507151509 20 60 1.6 0.0 0.00 0.00 2.08 94 1007.3
20260507151353 20 325 1.6 4.8 0.41 2.21 2.08 94 1007.7
20260507150853 20 26 1.6 8.0 0.41 2.18 2.06 94 1007.7
20260507150345 20 98 1.6 8.0 0.38 2.13 2.01 94 1007.8
20260507150001 19 327 3.2 0.0 0.00 0.00 1.98 94 1007.7
20260507145844 20 321 3.2 8.0 0.36 2.11 1.98 94 1008.1
20260507145346 20 267 3.2 8.0 0.33 2.08 1.96 94 1008.2
20260507144915 20 360 0.0 6.4 0.28 2.03 1.91 94 1008.1
20260507144526 19 19 1.6 0.0 0.00 0.00 1.88 94 1007.8
20260507144350 20 171 1.6 6.4 0.25 2.01 1.88 94 1008.1
20260507143850 20 336 1.6 6.4 0.20 1.96 1.83 94 1008.1
20260507143351 20 338 1.6 9.7 0.18 1.93 1.80 94 1008.3
20260507143100 20 83 3.2 0.0 0.00 0.00 1.78 94 1008.1
20260507142916 20 341 1.6 9.7 0.15 1.91 1.78 94 1008.3
20260507142355 20 275 4.8 9.7 0.10 1.85 1.73 94 1008.5
20260507141834 20 350 3.2 8.0 0.08 1.83 1.70 95 1008.5
20260507141609 20 286 3.2 0.0 0.00 0.00 1.70 94 1008.3
20260507141501 20 286 3.2 0.0 0.00 0.00 1.70 95 1008.2
20260507141334 20 320 1.6 8.0 0.05 1.80 1.68 94 1008.6
20260507140834 20 11 4.8 8.0 0.03 1.78 1.65 95 1008.6
20260507140348 20 355 1.6 3.2 0.03 1.75 1.63 95 1008.5
20260507140021 20 355 0.0 0.0 0.00 0.00 1.63 95 1008.3
20260507135848 20 355 1.6 3.2 0.03 1.75 1.63 95 1008.5
20260507135345 20 355 0.0 3.2 0.03 1.75 1.63 95 1008.5
20260507134845 20 43 1.6 8.0 0.03 1.75 1.63 95 1008.5
20260507134509 20 24 0.0 0.0 0.00 0.00 1.63 95 1008.2
20260507134347 20 24 0.0 8.0 0.03 1.75 1.63 95 1008.4
20260507133846 20 5 0.0 3.2 0.03 1.75 1.63 95 1008.4
20260507133347 20 69 1.6 3.2 0.03 1.75 1.63 95 1008.5
20260507133142 20 259 0.0 0.0 0.00 0.00 1.63 95 1008.2
20260507132916 20 232 0.0 3.2 0.03 1.75 1.63 95 1008.5
20260507132355 20 290 0.0 3.2 0.03 1.75 1.63 95 1008.5
20260507131835 20 290 1.6 3.2 0.03 1.75 1.63 95 1008.5
20260507131505 20 288 0.0 0.0 0.00 0.00 1.63 95 1008.2
20260507131337 20 288 1.6 3.2 0.03 1.75 1.63 95 1008.5
20260507130839 20 288 0.0 3.2 0.03 1.75 1.63 95 1008.4
20260507130330 20 268 0.0 3.2 0.00 1.73 1.60 95 1008.3
20260507130038 20 336 0.0 0.0 0.00 0.00 1.60 95 1007.9
20260507125858 20 336 0.0 3.2 0.00 1.73 1.60 95 1008.3
20260507125336 20 325 1.6 4.8 0.00 1.73 1.60 95 1008.3
20260507124902 20 14 0.0 4.8 0.00 1.73 1.60 95 1008.3
20260507124542 19 148 1.6 0.0 0.00 0.00 1.60 95 1008.0
20260507124342 20 47 0.0 4.8 0.00 1.73 1.60 95 1008.2
20260507123841 20 333 1.6 4.8 0.00 1.73 1.60 95 1008.3
20260507123340 20 57 0.0 4.8 0.00 1.73 1.60 95 1008.4
20260507123037 19 32 0.0 0.0 0.00 0.00 1.60 95 1008.1
20260507122841 20 68 0.0 3.2 0.00 1.73 1.60 95 1008.4
20260507122410 20 341 0.0 3.2 0.00 1.73 1.60 95 1008.5
20260507121851 20 341 0.0 3.2 0.00 1.73 1.60 95 1008.6
20260507121534 19 336 0.0 0.0 0.00 0.00 1.60 95 1008.3
20260507121331 19 336 0.0 3.2 0.00 1.73 1.60 95 1008.4
20260507120830 19 336 0.0 3.2 0.00 1.73 1.60 95 1008.6
20260507120339 19 336 0.0 3.2 0.00 1.73 1.60 95 1008.8
20260507120005 19 346 0.0 0.0 0.00 0.00 1.60 95 1008.4
20260507115840 19 346 0.0 3.2 0.00 1.73 1.60 95 1008.7
20260507115339 19 346 1.6 3.2 0.03 1.73 1.60 95 1008.8
20260507114838 19 280 0.0 4.8 0.03 1.73 1.60 95 1008.9
20260507114559 19 280 0.0 0.0 0.00 0.00 1.60 95 1008.7
20260507114339 19 275 0.0 4.8 0.03 1.73 1.60 95 1009.0
20260507113907 19 236 0.0 3.2 0.05 1.73 1.60 95 1009.0
20260507113348 19 236 1.6 3.2 0.05 1.73 1.60 95 1009.0
20260507113023 19 9 0.0 0.0 0.00 0.00 1.60 95 1008.7
20260507112849 19 9 1.6 3.2 0.05 1.73 1.60 95 1009.0
20260507112331 19 9 1.6 1.6 0.05 1.73 1.60 94 1008.9
20260507111835 19 9 0.0 3.2 0.08 1.73 1.60 94 1009.0
20260507111509 19 9 0.0 0.0 0.00 0.00 1.60 95 1008.9
20260507111331 19 9 0.0 3.2 0.08 1.73 1.60 94 1009.2
20260507110831 19 57 1.6 3.2 0.08 1.73 1.60 94 1009.2
20260507110403 19 336 0.0 1.6 0.08 1.73 1.60 94 1009.0
20260507110010 19 336 0.0 0.0 0.00 0.00 1.60 94 1008.7
20260507105840 19 336 0.0 3.2 0.10 1.73 1.60 94 1008.9
20260507105342 19 336 0.0 3.2 0.08 1.70 1.57 94 1008.8
20260507104849 19 57 1.6 1.6 0.08 1.70 1.57 94 1008.8
20260507104539 19 59 0.0 0.0 0.00 0.00 1.57 94 1008.5
20260507104330 19 58 0.0 3.2 0.10 1.70 1.57 94 1008.8
20260507103900 19 322 0.0 3.2 0.08 1.68 1.55 94 1008.8
20260507103341 19 349 0.0 3.2 0.08 1.68 1.55 94 1008.8
20260507103013 19 355 0.0 0.0 0.00 0.00 1.55 94 1008.5
20260507102842 19 350 0.0 4.8 0.10 1.68 1.55 94 1008.7
20260507102342 19 261 0.0 4.8 0.10 1.68 1.55 94 1008.6
20260507101840 19 22 0.0 1.6 0.10 1.65 1.52 94 1008.7
20260507101506 19 22 0.0 0.0 0.00 0.00 1.52 94 1008.5
20260507101338 19 22 0.0 3.2 0.13 1.65 1.52 94 1008.9
20260507100837 19 30 1.6 3.2 0.13 1.65 1.52 94 1008.8
20260507100332 19 346 0.0 4.8 0.15 1.65 1.52 94 1008.8
20260507100035 19 346 0.0 0.0 0.00 0.00 1.52 94 1008.4
20260507095834 19 346 0.0 6.4 0.15 1.63 1.50 94 1008.7
20260507095335 19 14 0.0 3.2 0.18 1.65 1.50 94 1008.6
20260507094838 19 13 1.6 3.2 0.18 1.65 1.50 94 1008.7
20260507094518 19 5 1.6 0.0 0.00 0.00 1.50 94 1008.4
20260507094341 19 44 0.0 3.2 0.18 1.63 1.47 94 1008.7
20260507093843 19 13 0.0 3.2 0.20 1.63 1.47 94 1008.7
20260507093344 19 13 0.0 3.2 0.23 1.63 1.47 94 1008.5
20260507093007 19 13 0.0 0.0 0.00 0.00 1.42 94 1008.2
20260507092845 19 339 0.0 3.2 0.20 1.60 1.45 94 1008.5
20260507092346 19 46 0.0 3.2 0.23 1.60 1.45 94 1008.5
20260507091847 19 48 0.0 3.2 0.20 1.57 1.42 94 1008.7
20260507091552 19 48 0.0 0.0 0.00 0.00 1.42 94 1008.5
20260507091346 19 32 0.0 3.2 0.20 1.55 1.40 94 1008.8
20260507090841 19 41 1.6 3.2 0.23 1.55 1.40 94 1008.8
20260507090333 19 290 1.6 3.2 0.20 1.52 1.37 94 1008.7
20260507090019 18 25 0.0 0.0 0.00 0.00 1.37 94 1008.3
20260507085834 19 26 0.0 4.8 0.20 1.50 1.35 94 1008.7
20260507085336 19 26 3.2 4.8 0.23 1.50 1.35 94 1008.8
20260507084836 19 342 0.0 3.2 0.20 1.47 1.32 94 1009.0
20260507084510 19 327 0.0 0.0 0.00 0.00 1.30 94 1008.8
20260507084338 19 322 1.6 3.2 0.20 1.45 1.30 94 1009.1
20260507083844 19 342 0.0 3.2 0.18 1.42 1.27 94 1008.8
20260507083344 19 343 0.0 3.2 0.18 1.40 1.24 94 1009.1
20260507083005 18 342 0.0 0.0 0.00 0.00 1.24 94 1008.9
20260507082844 19 271 0.0 1.6 0.20 1.40 1.24 94 1009.3
20260507082343 19 271 0.0 3.2 0.18 1.37 1.22 94 1009.4
20260507081845 19 271 0.0 3.2 0.20 1.37 1.22 94 1009.5
20260507081554 18 309 0.0 0.0 0.00 0.00 1.19 94 1009.3
20260507081408 19 349 0.0 3.2 0.20 1.35 1.19 94 1009.4
20260507080840 19 350 1.6 4.8 0.18 1.32 1.17 94 1009.2
20260507080333 19 259 1.6 4.8 0.18 1.32 1.17 94 1009.3
20260507080043 18 259 1.6 0.0 0.00 0.00 1.14 94 1008.7
20260507075831 19 61 1.6 4.8 0.15 1.30 1.14 94 1008.2
20260507075331 19 61 0.0 3.2 0.15 1.30 1.14 94 1009.0
20260507074858 19 61 1.6 3.2 0.13 1.27 1.12 94 1009.3
20260507074513 18 61 0.0 0.0 0.00 0.00 1.12 94 1009.2
20260507074338 19 61 0.0 1.6 0.10 1.24 1.09 94 1009.7
20260507073838 19 61 0.0 0.0 0.10 1.24 1.09 94 1009.7
20260507073402 19 61 0.0 1.6 0.08 1.22 1.07 94 1009.8
20260507073048 18 61 0.0 0.0 0.00 0.00 1.07 93 1009.7
20260507072843 19 61 0.0 1.6 0.05 1.19 1.04 94 1009.7
20260507072342 19 61 0.0 1.6 0.05 1.19 1.04 94 1009.5
20260507071843 19 61 0.0 1.6 0.03 1.17 1.02 94 1009.4
20260507071534 18 61 0.0 0.0 0.00 0.00 1.02 93 1009.2
20260507071344 19 61 0.0 1.6 0.00 1.14 0.99 93 1009.6
20260507070842 19 61 0.0 1.6 0.00 1.14 0.99 93 1009.3
20260507070355 19 61 0.0 1.6 0.00 1.14 0.99 93 1009.8
20260507070044 18 61 0.0 0.0 0.00 0.00 0.99 93 1009.8
20260507065901 19 61 0.0 0.0 0.00 1.14 0.99 93 1010.1
20260507065340 19 61 0.0 0.0 0.00 1.14 0.99 93 1010.1
20260507064840 19 61 0.0 0.0 0.00 1.14 0.99 93 1009.9
20260507064505 18 61 0.0 0.0 0.00 0.00 0.99 93 1009.6
20260507064337 19 61 0.0 0.0 0.00 1.14 0.99 93 1009.9
20260507063838 19 61 0.0 0.0 0.03 1.14 0.99 93 1010.2
20260507063338 19 61 0.0 0.0 0.08 1.14 0.99 93 1010.2
20260507063052 18 61 0.0 0.0 0.00 0.00 0.99 93 1010.0
20260507062906 19 61 0.0 0.0 0.13 1.14 0.99 93 1010.4
20260507062344 19 61 0.0 0.0 0.18 1.14 0.99 93 1010.4
20260507061846 19 61 0.0 0.0 0.23 1.14 0.99 93 1010.6
20260507061523 19 61 0.0 0.0 0.00 0.00 0.99 93 1010.4
20260507061344 19 61 0.0 0.0 0.33 1.14 0.99 93 1010.8
20260507060843 19 61 0.0 1.6 0.41 1.14 0.99 93 1011.0
20260507060355 19 61 0.0 1.6 0.48 1.14 0.99 93 1010.8
20260507060050 19 61 0.0 0.0 0.00 0.00 0.99 93 1010.3
20260507055850 19 61 1.6 1.6 0.53 1.14 0.99 93 1010.6
20260507055351 19 61 0.0 0.0 0.61 1.14 0.99 93 1010.3
20260507054916 19 61 0.0 1.6 0.69 1.14 0.99 93 1010.6
20260507054548 19 61 0.0 0.0 0.00 0.00 0.99 92 1010.3
20260507054353 19 61 0.0 1.6 0.79 1.14 0.99 92 1010.5
20260507053855 20 61 0.0 3.2 0.81 1.12 0.97 92 1010.3
20260507053335 20 61 1.6 3.2 0.84 1.07 0.91 92 1009.9
20260507053019 19 61 0.0 0.0 0.00 0.00 0.89 92 1009.4
20260507052903 20 61 0.0 1.6 0.86 1.04 0.89 92 1009.9
20260507052341 20 61 0.0 1.6 0.81 0.97 0.81 92 1010.2
20260507051841 20 61 0.0 4.8 0.76 0.91 0.76 92 1010.3
20260507051543 20 61 1.6 0.0 0.00 0.00 0.71 92 1010.0
20260507051409 20 61 0.0 9.7 0.69 0.84 0.69 92 1009.8
20260507050830 20 51 3.2 9.7 0.58 0.74 0.58 91 1012.2
20260507050407 20 329 1.6 4.8 0.51 0.66 0.51 91 1012.5
20260507050029 20 340 0.0 0.0 0.00 0.00 0.48 91 1011.7
20260507045848 20 9 1.6 4.8 0.46 0.61 0.46 91 1012.0
20260507045349 20 109 0.0 4.8 0.38 0.53 0.38 91 1011.8